DW1970 Bodega Bay CA US current weather conditions

sailwx.info

Wind from 281 at 5 knots

Air temperature 13.9° C
Dewpoint 10.9° C

Last reported at 2018-Apr-21 23:00 UTC.
Time now 2018-Apr-21 23:16 UTC

Location: N 38°23' W 123°04'.
View on Google Maps.

See reports from other nearby stations

  
Tides and Currents Weather Stations Pressure Air Temp Water Temp Dewpoint Dewpoint Depression Visibility Wind Speed Wind Dir Waves Ship Positions
date/time (UTC)wind fromknots sea level pressurealtimeterstation pressurevisibilityair tempwater tempwave heightnotes
2018-Apr-21 23:00 281 5 13.9
2018-Apr-21 22:45 271 6 13.9
2018-Apr-21 22:30 284 5 13.9
2018-Apr-21 22:15 288 6 13.3
2018-Apr-21 22:00 306 5 13.9
2018-Apr-21 21:45 259 5 13.9
2018-Apr-21 21:30 277 5 14.4
2018-Apr-21 21:15 269 5 13.9
2018-Apr-21 21:00 278 4 15.0
2018-Apr-21 20:45 270 2 15.6
2018-Apr-21 20:30 260 3 14.4
2018-Apr-21 20:15 277 5 14.4
2018-Apr-21 20:00 242 3 15.6
2018-Apr-21 19:45 275 3 15.0
2018-Apr-21 19:30 230 2 15.0
2018-Apr-21 19:15 257 2 13.9
2018-Apr-21 19:00 292 3 13.3
2018-Apr-21 18:45 264 3 12.8
2018-Apr-21 18:30 244 5 13.3
2018-Apr-21 18:15 283 3 16.1
2018-Apr-21 18:00 251 1 16.7
2018-Apr-21 17:45 179 1 15.6
2018-Apr-21 17:30 260 1 13.3
2018-Apr-21 17:15 240 0 13.3
2018-Apr-21 16:59 298 1 12.2
2018-Apr-21 16:44 296 2 12.2
2018-Apr-21 16:29 275 0 12.2
2018-Apr-21 16:14 299 1 11.7
2018-Apr-21 15:59 275 1 11.1
2018-Apr-21 15:44 295 1 10.6
2018-Apr-21 15:29 312 3 10.0
2018-Apr-21 15:14 300 1 11.1
2018-Apr-21 14:59 037 0 12.2
2018-Apr-21 14:44 040 0 10.0
2018-Apr-21 14:29 240 1 9.4
2018-Apr-21 14:14 061 1 10.0
2018-Apr-21 13:59 115 2 9.4
2018-Apr-21 13:29 044 1 8.3
2018-Apr-21 13:14 325 3 8.3
2018-Apr-21 12:59 046 1 7.8
2018-Apr-21 12:44 057 8.3
2018-Apr-21 12:29 109 2 8.3
2018-Apr-21 12:14 105 0 8.3
2018-Apr-21 11:59 164 0 9.4
2018-Apr-21 11:44 074 4 9.4
2018-Apr-21 11:29 094 1 8.3
2018-Apr-21 11:14 105 2 8.3
2018-Apr-21 10:59 217 1 8.9
2018-Apr-21 10:44 110 2 8.9
2018-Apr-21 10:29 125 2 8.9
2018-Apr-21 10:14 083 1 8.9
2018-Apr-21 09:59 073 1 8.3
2018-Apr-21 09:44 080 2 8.3
2018-Apr-21 09:29 137 1 8.3
2018-Apr-21 09:14 107 1 8.3
2018-Apr-21 08:59 158 0 8.3
2018-Apr-21 08:44 147 1 8.3
2018-Apr-21 08:29 049 0 8.3
2018-Apr-21 08:14 248 1 8.3
2018-Apr-21 07:59 019 1 8.9
2018-Apr-21 07:44 303 6 9.4
2018-Apr-21 07:29 288 7 9.4
2018-Apr-21 07:14 290 3 9.4
2018-Apr-21 06:59 046 0 9.4
2018-Apr-21 06:44 244 3 9.4
2018-Apr-21 06:28 300 6 9.4
2018-Apr-21 06:13 310 6 9.4
2018-Apr-21 05:59 316 8 9.4
2018-Apr-21 05:43 323 7 9.4
2018-Apr-21 05:29 299 6 9.4
2018-Apr-21 05:13 313 9 9.4
2018-Apr-21 04:59 335 9 9.4
2018-Apr-21 04:43 292 12 10.0
2018-Apr-21 04:28 296 10 10.0
2018-Apr-21 04:13 306 12 10.0
2018-Apr-21 03:58 310 13 10.0
2018-Apr-21 03:43 331 11 10.0
2018-Apr-21 03:28 316 10 10.0
2018-Apr-21 03:13 303 8 10.0
2018-Apr-21 02:58 306 12 10.6
2018-Apr-21 02:43 291 10 10.6
2018-Apr-21 02:28 302 8 11.1
2018-Apr-21 02:13 310 12 11.1
2018-Apr-21 01:58 307 10 11.7
2018-Apr-21 01:43 311 10 11.7
2018-Apr-21 01:28 288 12 11.7
2018-Apr-21 01:13 294 11 11.7
2018-Apr-21 00:58 290 11 12.2
2018-Apr-21 00:43 309 11 12.2
2018-Apr-21 00:28 314 14 11.7
2018-Apr-21 00:13 289 12 12.2
2018-Apr-20 23:58 311 10 12.2
2018-Apr-20 23:43 282 12 12.2
2018-Apr-20 23:28 287 10 11.7
2018-Apr-20 23:13 306 14 11.7
2018-Apr-20 22:58 321 13 11.7
2018-Apr-20 22:43 297 11 12.2
2018-Apr-20 22:28 298 7 12.2
2018-Apr-20 22:13 286 7 12.2
2018-Apr-20 21:58 304 9 11.7
2018-Apr-20 21:43 302 7 11.7
2018-Apr-20 21:28 294 10 12.2
2018-Apr-20 21:13 291 7 12.2
2018-Apr-20 20:58 296 9 12.2
2018-Apr-20 20:43 296 6 12.2
2018-Apr-20 20:28 298 5 12.2
2018-Apr-20 20:13 263 4 12.8
2018-Apr-20 19:58 242 4 12.8
2018-Apr-20 19:43 261 4 12.8
2018-Apr-20 19:28 248 3 12.8
2018-Apr-20 19:13 257 4 12.8
2018-Apr-20 18:58 241 4 12.2
2018-Apr-20 18:43 263 4 12.2
2018-Apr-20 18:28 277 3 12.2
2018-Apr-20 18:13 230 3 12.2
2018-Apr-20 17:58 279 3 11.7
2018-Apr-20 17:43 264 2 12.8
2018-Apr-20 17:28 251 2 12.2
2018-Apr-20 17:13 254 1 11.7
2018-Apr-20 16:58 300 2 11.7
2018-Apr-20 16:43 304 1 11.1
2018-Apr-20 16:28 296 1 10.6
2018-Apr-20 16:13 313 2 10.0
2018-Apr-20 15:58 297 5 9.4
2018-Apr-20 15:43 294 4 10.0
2018-Apr-20 15:28 264 0 10.0
2018-Apr-20 15:13 325 2 9.4
2018-Apr-20 14:58 242 0 10.0
2018-Apr-20 14:43 200 0 10.0
2018-Apr-20 14:28 146 0 9.4
2018-Apr-20 14:13 074 1 8.3
2018-Apr-20 13:58 355 0 8.9
2018-Apr-20 13:27 059 0 8.9
2018-Apr-20 13:12 090 1 8.3
2018-Apr-20 12:57 068 2 7.8
2018-Apr-20 12:42 077 1 7.2
2018-Apr-20 12:27 022 0 7.2
2018-Apr-20 12:12 211 7.8
2018-Apr-20 11:57 113 3 7.8
2018-Apr-20 11:42 060 2 7.8
2018-Apr-20 11:27 019 2 7.8
2018-Apr-20 11:12 095 0 7.8
2018-Apr-20 10:57 105 1 8.3
2018-Apr-20 10:42 063 2 8.3
2018-Apr-20 10:27 349 1 8.3
2018-Apr-20 10:12 093 8.9
2018-Apr-20 09:57 131 1 8.9
2018-Apr-20 09:42 074 1 10.6
2018-Apr-20 09:27 075 0 9.4
2018-Apr-20 09:12 154 1 9.4
2018-Apr-20 08:57 085 4 8.9
2018-Apr-20 08:42 154 2 8.9
2018-Apr-20 08:27 083 2 9.4
2018-Apr-20 07:57 078 1 8.9
2018-Apr-20 07:42 090 1 8.9
2018-Apr-20 07:27 050 1 8.9
2018-Apr-20 07:12 118 0 8.9
2018-Apr-20 06:57 152 0 9.4
2018-Apr-20 06:42 040 9.4
2018-Apr-20 06:27 071 0 9.4
2018-Apr-20 06:12 139 2 9.4
2018-Apr-20 05:57 110 0 10.0
2018-Apr-20 05:42 113 0 10.0
2018-Apr-20 05:27 240 0 10.6
2018-Apr-20 05:12 052 10.6
2018-Apr-20 04:57 035 2 10.0
2018-Apr-20 04:42 080 0 9.4
2018-Apr-20 04:27 080 1 9.4
2018-Apr-20 04:12 080 1 10.0
2018-Apr-20 03:57 304 3 10.0
2018-Apr-20 03:42 273 4 10.0
2018-Apr-20 03:27 298 7 10.0
2018-Apr-20 03:12 269 5 10.6
2018-Apr-20 02:57 259 4 10.6
2018-Apr-20 02:42 305 6 11.1
2018-Apr-20 02:27 319 13 11.1
2018-Apr-20 02:12 298 12 11.1
2018-Apr-20 01:57 275 12 11.7
2018-Apr-20 01:42 284 13 11.7
2018-Apr-20 01:27 304 13 11.7
2018-Apr-20 00:57 292 13 12.2
2018-Apr-20 00:42 300 15 11.7
2018-Apr-20 00:27 338 12 12.2
2018-Apr-20 00:12 277 10 12.2
2018-Apr-19 23:57 313 13 11.7
2018-Apr-19 23:42 277 17 11.7
2018-Apr-19 23:27 303 16 11.7
2018-Apr-19 23:12 283 18 11.7